Latest Weather Observations for Gingin Airport

IDW60801

Issued at 12:02 pm WST Sunday 29 March 2015 (issued every 30 minutes, with the page automatically refreshed every 10 minutes)

About weather observations | Map of weather stations | Latest weather observations for WA | Other Formats
Station Details ID: 009178 Name: GINGIN AERO Lat: -31.46 Lon: 115.86 Height: 73.0 m
Data from the previous 72 hours. | See also: Recent months at Gingin Airport
Date/Time
WST
Temp
°C
App
Temp
°C
Dew
Point
Rel
Hum
%
Delta-T
°C
Wind Press
QNH
hPa
Press
MSL
hPa
Rain
since 9 am
mm
Dir
 
Spd
km/h
Gust
km/h
Spd
kts
Gust
kts
29/12:00pm 29.5 26.2 8.0 26 11.7 NE 15 26 8 14 1018.8 1018.5 0.0
29/11:30am 28.7 24.6 7.9 27 11.3 NNE 19 28 10 15 1019.1 1018.8 0.0
29/11:00am 28.7 25.5 9.9 31 10.5 ENE 17 28 9 15 1019.5 1019.2 0.0
29/10:30am 27.5 24.8 10.2 34 9.7 ENE 15 22 8 12 1020.0 1019.7 0.0
29/10:00am 26.0 24.0 11.4 40 8.3 E 13 17 7 9 1020.4 1020.1 0.0
29/09:30am 25.0 22.3 11.6 43 7.6 ENE 17 24 9 13 1020.5 1020.2 0.0
29/09:00am 23.0 21.0 12.6 52 5.9 ENE 15 19 8 10 1020.5 1020.2 0.0
29/08:30am 19.7 19.5 13.6 68 3.5 ENE 7 9 4 5 1020.5 1020.2 0.0
29/08:00am 17.1 19.2 17.1 100 0.0 E 2 7 1 4 1020.5 1020.2 0.0
29/07:30am 13.1 14.1 13.1 100 0.0 CALM 0 0 0 0 1020.5 1020.2 0.0
29/07:00am 10.9 11.2 10.9 100 0.0 CALM 0 0 0 0 1020.3 1020.0 0.0
29/06:30am 9.5 9.4 9.5 100 0.0 CALM 0 0 0 0 1020.1 1019.8 0.0
29/06:00am 9.9 9.9 9.9 100 0.0 CALM 0 0 0 0 1020.0 1019.7 0.0
29/05:30am 10.0 10.1 10.0 100 0.0 CALM 0 0 0 0 1019.8 1019.5 0.0
29/05:00am 10.4 9.4 10.4 100 0.0 SSW 6 9 3 5 1019.7 1019.4 0.0
29/04:30am 10.3 9.3 10.3 100 0.0 SSW 6 7 3 4 1019.6 1019.3 0.0
29/04:00am 10.2 9.2 10.2 100 0.0 SSW 6 6 3 3 1019.5 1019.2 0.0
29/03:30am 10.6 10.4 10.6 100 0.0 SSW 2 6 1 3 1019.4 1019.1 0.0
29/03:00am 10.6 10.8 10.6 100 0.0 CALM 0 0 0 0 1019.6 1019.3 0.0
29/02:30am 10.8 11.1 10.8 100 0.0 CALM 0 0 0 0 1019.7 1019.4 0.0
29/02:00am 11.5 11.2 11.5 100 0.0 SSW 4 6 2 3 1019.7 1019.4 0.0
29/01:30am 11.7 12.2 11.7 100 0.0 CALM 0 0 0 0 1020.0 1019.7 0.0
29/01:00am 11.8 12.4 11.8 100 0.0 CALM 0 0 0 0 1020.2 1019.9 0.0
29/12:30am 12.1 12.4 12.1 100 0.0 SSW 2 6 1 3 1020.1 1019.8 0.0
29/12:00am 12.8 13.7 12.8 100 0.0 CALM 0 0 0 0 1020.2 1019.9 0.0
 
Date/Time
WST
Temp
°C
App
Temp
°C
Dew
Point
Rel
Hum
%
Delta-T
°C
Wind Press
QNH
hPa
Press
MSL
hPa
Rain
since 9 am
mm
Dir
 
Spd
km/h
Gust
km/h
Spd
kts
Gust
kts
28/11:30pm 13.5 14.6 13.5 100 0.0 CALM 0 0 0 0 1020.3 1020.0 0.0
28/11:00pm 13.8 13.8 13.5 98 0.2 SSW 6 7 3 4 1020.3 1020.0 0.0
28/10:30pm 15.3 15.3 15.3 100 0.0 SSW 9 9 5 5 1020.4 1020.1 0.0
28/10:00pm 15.3 15.8 15.1 99 0.1 SSW 6 7 3 4 1020.6 1020.3 0.0
28/09:30pm 16.1 16.3 14.8 92 0.7 SW 7 7 4 4 1020.7 1020.4 0.0
28/09:00pm 17.4 17.5 15.4 88 1.2 SSW 9 11 5 6 1020.6 1020.3 0.0
28/08:30pm 17.8 18.4 15.2 85 1.5 S 6 7 3 4 1020.5 1020.2 0.0
28/08:00pm 18.2 17.7 14.9 81 1.9 S 11 15 6 8 1020.3 1020.0 0.0
28/07:30pm 18.6 17.9 14.3 76 2.5 S 11 17 6 9 1020.0 1019.7 0.0
28/07:00pm 19.1 17.8 13.7 71 3.1 S 13 19 7 10 1019.5 1019.2 0.0
28/06:30pm 19.9 17.4 13.4 66 3.7 SSW 19 28 10 15 1019.4 1019.1 0.0
28/06:00pm 20.9 17.5 12.6 59 4.7 SSW 22 30 12 16 1019.1 1018.8 0.0
28/05:30pm 21.7 17.8 13.3 59 4.8 SSW 26 33 14 18 1018.8 1018.5 0.0
28/05:00pm 22.6 19.0 13.1 55 5.5 SSW 24 32 13 17 1018.5 1018.2 0.0
28/04:30pm 23.2 19.0 12.5 51 6.1 SSW 26 37 14 20 1018.4 1018.1 0.0
28/04:00pm 24.2 20.5 12.8 49 6.6 SSW 24 32 13 17 1018.4 1018.1 0.0
28/03:30pm 25.4 21.7 12.6 45 7.4 SW 24 33 13 18 1018.4 1018.1 0.0
28/03:00pm 25.2 20.4 11.7 43 7.7 SSW 28 33 15 18 1018.5 1018.2 0.0
28/02:30pm 25.4 21.2 13.6 48 6.9 SSW 28 35 15 19 1018.6 1018.3 0.0
28/02:00pm 25.6 22.7 14.1 49 6.8 WSW 22 35 12 19 1018.7 1018.4 0.0
28/01:30pm 26.1 24.4 14.6 49 6.9 SSW 17 26 9 14 1019.0 1018.7 0.0
28/01:00pm 26.7 24.9 10.8 37 9.0 SW 11 22 6 12 1019.2 1018.9 0.0
28/12:30pm 26.3 24.5 12.0 41 8.2 SW 13 20 7 11 1019.6 1019.3 0.0
28/12:00pm 25.3 23.4 11.8 43 7.7 S 13 50 7 27 1020.3 1020.0 0.0
28/11:30am 24.8 23.3 13.0 47 6.9 SSW 13 20 7 11 1020.6 1020.3 0.0
28/11:00am 24.2 23.3 13.7 52 6.1 SSE 11 20 6 11 1021.1 1020.8 0.0
28/10:30am 23.2 22.2 14.7 58 5.0 S 13 19 7 10 1021.3 1021.0 0.0
28/10:00am 22.0 20.8 13.9 60 4.7 S 13 20 7 11 1021.5 1021.2 0.0
28/09:30am 21.2 19.4 14.4 65 4.0 S 17 22 9 12 1021.4 1021.1 0.0
28/09:00am 20.2 18.7 15.2 73 2.9 SSE 17 20 9 11 1021.4 1021.1 0.0
28/08:30am 18.5 18.9 17.3 93 0.7 S 11 15 6 8 1021.3 1021.0 0.0
28/08:00am 15.5 17.3 15.5 100 0.0 CALM 0 6 0 3 1021.1 1020.8 0.0
28/07:30am 13.3 14.3 13.3 100 0.0 CALM 0 0 0 0 1020.9 1020.6 0.0
28/07:00am 11.3 11.7 11.3 100 0.0 CALM 0 6 0 3 1020.7 1020.4 0.0
28/06:30am 10.3 9.7 10.3 100 0.0 NE 4 6 2 3 1020.3 1020.0 0.0
28/06:00am 10.4 8.9 10.4 100 0.0 NE 9 11 5 6 1020.0 1019.7 0.0
28/05:30am 10.1 9.8 10.1 100 0.0 SE 2 7 1 4 1019.7 1019.4 0.0
28/05:00am 12.2 12.5 12.2 100 0.0 SE 2 6 1 3 1019.4 1019.1 0.0
28/04:30am 12.4 12.0 12.4 100 0.0 SE 6 7 3 4 1019.2 1018.9 0.0
28/04:00am 12.3 13.0 12.3 100 0.0 CALM 0 0 0 0 1019.2 1018.9 0.0
28/03:30am 12.8 12.9 12.8 100 0.0 SE 4 6 2 3 1019.1 1018.8 0.0
28/03:00am 12.9 12.7 12.9 100 0.0 SE 6 7 3 4 1019.0 1018.7 0.0
28/02:30am 13.3 13.6 13.3 100 0.0 SE 4 6 2 3 1018.9 1018.6 0.0
28/02:00am 13.1 12.9 13.1 100 0.0 SSE 6 7 3 4 1019.2 1018.9 0.0
28/01:30am 13.0 13.9 13.0 100 0.0 CALM 0 0 0 0 1019.3 1019.0 0.0
28/01:00am 14.0 15.3 14.0 100 0.0 CALM 0 0 0 0 1019.4 1019.1 0.0
28/12:30am 14.4 15.8 14.4 100 0.0 CALM 0 0 0 0 1019.5 1019.2 0.0
28/12:00am 14.3 15.3 14.3 100 0.0 SSE 2 7 1 4 1019.6 1019.3 0.0
 
Date/Time
WST
Temp
°C
App
Temp
°C
Dew
Point
Rel
Hum
%
Delta-T
°C
Wind Press
QNH
hPa
Press
MSL
hPa
Rain
since 9 am
mm
Dir
 
Spd
km/h
Gust
km/h
Spd
kts
Gust
kts
27/11:30pm 15.6 15.7 15.6 100 0.0 SSE 9 9 5 5 1019.6 1019.3 0.0
27/11:00pm 16.0 16.7 16.0 100 0.0 SSE 7 7 4 4 1019.8 1019.5 0.0
27/10:30pm 17.0 18.1 16.7 98 0.2 SSE 6 7 3 4 1019.9 1019.6 0.0
27/10:00pm 17.9 18.2 17.1 95 0.5 S 11 13 6 7 1020.0 1019.7 0.0
27/09:30pm 18.1 18.4 17.1 94 0.6 S 11 13 6 7 1020.2 1019.9 0.0
27/09:00pm 18.7 18.6 17.0 90 1.0 S 13 15 7 8 1020.0 1019.7 0.0
27/08:30pm 19.5 18.2 16.9 85 1.6 S 19 24 10 13 1019.7 1019.4 0.0
27/08:00pm 19.6 18.7 15.9 79 2.2 SSW 15 20 8 11 1019.3 1019.0 0.0
27/07:30pm 20.1 19.1 15.5 75 2.7 SSW 15 17 8 9 1018.9 1018.6 0.0
27/07:00pm 20.7 19.2 15.3 71 3.2 SSW 17 19 9 10 1018.4 1018.1 0.0
27/06:30pm 21.6 19.4 14.5 64 4.2 SSW 19 24 10 13 1018.1 1017.8 0.0
27/06:00pm 22.7 20.2 14.0 58 5.1 SSW 20 28 11 15 1017.9 1017.6 0.0
27/05:30pm 23.8 20.5 13.9 54 5.8 SW 24 32 13 17 1017.8 1017.5 0.0
27/05:00pm 24.9 21.8 14.4 52 6.2 SSW 24 32 13 17 1017.6 1017.2 0.0
27/04:30pm 25.3 22.2 14.4 50 6.5 SSW 24 32 13 17 1017.4 1017.0 0.0
27/04:00pm 25.5 22.7 14.3 50 6.7 SSW 22 30 12 16 1017.3 1016.9 0.0
27/03:30pm 25.9 23.1 14.4 49 6.9 SSW 22 32 12 17 1017.4 1017.0 0.0
27/03:00pm 26.1 23.3 14.2 48 7.1 SSW 22 30 12 16 1017.3 1016.9 0.0
27/02:30pm 26.0 23.0 13.8 47 7.2 SW 22 30 12 16 1017.4 1017.0 0.0
27/02:00pm 26.5 24.2 12.9 43 7.9 SW 17 33 9 18 1017.7 1017.4 0.0
27/01:30pm 26.4 24.4 13.9 46 7.4 SSW 17 26 9 14 1018.0 1017.7 0.0
27/01:00pm 25.9 23.3 13.1 45 7.5 SSW 19 26 10 14 1018.3 1018.0 0.0
27/12:30pm 25.9 24.2 13.7 47 7.2 S 15 33 8 18 1018.8 1018.5 0.0
27/12:00pm 25.3 23.5 13.2 47 7.1 S 15 20 8 11 1019.1 1018.8 0.0
27/11:30am 25.0 24.2 12.9 47 7.0 S 9 15 5 8 1019.6 1019.3 0.0
27/11:00am 24.3 23.0 14.7 55 5.7 WSW 15 19 8 10 1019.9 1019.6 0.0
27/10:30am 23.4 24.1 14.4 57 5.3 E 4 7 2 4 1020.0 1019.7 0.0
27/10:00am 22.6 22.9 14.4 60 4.8 E 6 11 3 6 1020.3 1020.0 0.0
27/09:30am 21.9 21.8 15.0 65 4.1 ENE 9 13 5 7 1020.4 1020.1 0.0
27/09:00am 20.8 20.2 15.6 72 3.1 E 13 19 7 10 1020.4 1020.1 5.8
27/08:30am 19.7 19.1 15.6 77 2.4 ENE 13 17 7 9 1020.4 1020.1 5.8
27/08:00am 18.7 17.7 15.6 82 1.8 E 15 19 8 10 1020.5 1020.2 5.8
27/07:30am 17.7 18.1 16.2 91 0.9 ESE 9 13 5 7 1020.5 1020.2 5.8
27/07:00am 16.0 15.9 16.0 100 0.0 E 11 13 6 7 1020.2 1019.9 5.8
27/06:30am 16.2 16.2 16.2 100 0.0 E 11 15 6 8 1020.1 1019.8 5.8
27/06:00am 16.2 16.2 16.2 100 0.0 E 11 13 6 7 1020.2 1019.9 5.8
27/05:30am 16.5 17.0 16.5 100 0.0 ENE 9 13 5 7 1019.8 1019.5 5.8
27/05:00am 16.2 15.8 16.2 100 0.0 E 13 15 7 8 1019.4 1019.1 5.8
27/04:30am 16.6 17.0 16.4 99 0.1 ENE 9 13 5 7 1019.4 1019.1 5.8
27/04:00am 17.2 16.3 16.9 98 0.2 E 17 20 9 11 1019.3 1019.0 5.8
27/03:30am 16.8 16.6 16.8 100 0.0 E 13 15 7 8 1019.9 1019.6 5.8
27/03:00am 16.2 16.6 16.2 100 0.0 ESE 9 13 5 7 1020.0 1019.7 5.8
27/02:30am 16.0 16.3 16.0 100 0.0 ESE 9 13 5 7 1020.0 1019.7 5.8
27/02:00am 16.4 16.5 16.4 100 0.0 ESE 11 15 6 8 1020.3 1020.0 5.8
27/01:30am 16.5 16.1 16.3 99 0.1 E 13 17 7 9 1020.5 1020.2 5.8
27/01:00am 16.6 16.2 16.3 98 0.2 E 13 15 7 8 1020.9 1020.6 5.8
27/12:30am 16.9 16.3 16.7 99 0.1 ESE 15 20 8 11 1021.0 1020.7 5.8
27/12:00am 16.9 15.9 16.6 98 0.2 ESE 17 22 9 12 1021.2 1020.9 5.8
 
Date/Time
WST
Temp
°C
App
Temp
°C
Dew
Point
Rel
Hum
%
Delta-T
°C
Wind Press
QNH
hPa
Press
MSL
hPa
Rain
since 9 am
mm
Dir
 
Spd
km/h
Gust
km/h
Spd
kts
Gust
kts
26/11:30pm 17.5 16.3 17.5 100 0.0 ESE 20 24 11 13 1021.2 1020.9 5.8
26/11:00pm 17.1 17.4 17.1 100 0.0 ESE 11 15 6 8 1021.8 1021.5 5.6
26/10:30pm 17.4 18.2 17.4 100 0.0 ESE 9 11 5 6 1022.4 1022.1 5.2
26/10:00pm 17.4 17.8 17.2 99 0.1 SSE 11 13 6 7 1022.5 1022.2 5.2
26/09:30pm 17.9 17.4 16.8 93 0.7 SE 15 20 8 11 1021.8 1021.5 4.6
26/09:00pm 17.3 17.0 17.3 100 0.0 SSE 15 20 8 11 1021.9 1021.6 4.6
26/08:30pm 17.7 16.9 17.2 97 0.3 SSE 17 22 9 12 1022.3 1022.0 4.0
26/08:00pm 18.1 17.8 17.3 95 0.5 S 15 24 8 13 1022.0 1021.7 3.2
26/07:30pm 19.3 19.2 16.9 86 1.5 SSW 13 13 7 7 1021.1 1020.8 2.8
26/07:00pm 18.5 20.2 18.5 100 0.0 WSW 7 11 4 6 1020.9 1020.6 2.8
26/06:30pm 18.8 18.5 17.3 91 0.9 NNE 15 22 8 12 1021.1 1020.8 2.4
26/06:00pm 19.3 19.9 16.9 86 1.5 ESE 9 11 5 6 1020.2 1019.9 2.2
26/05:30pm 19.4 19.2 16.8 85 1.6 ESE 13 19 7 10 1020.1 1019.8 2.2
26/05:00pm 19.5 19.7 16.7 84 1.7 ENE 11 13 6 7 1019.8 1019.5 2.2
26/04:30pm 18.9 19.5 16.9 88 1.2 ENE 9 13 5 7 1020.3 1020.0 2.2
26/04:00pm 20.5 16.7 13.7 65 3.9 NE 26 33 14 18 1020.5 1020.2 1.0
26/03:30pm 23.5 20.4 11.5 47 6.8 NNE 19 26 10 14 1020.4 1020.1 0.2
26/03:00pm 26.9 22.6 6.9 28 10.6 ENE 19 24 10 13 1019.7 1019.4 0.0
26/02:30pm 27.4 22.9 6.2 26 11.1 ENE 19 26 10 14 1019.8 1019.5 0.0
26/02:00pm 27.1 22.0 6.0 26 11.0 ENE 22 28 12 15 1020.1 1019.8 0.0
26/01:30pm 26.9 21.8 5.8 26 11.0 E 22 33 12 18 1020.5 1020.2 0.0
26/01:00pm 26.3 20.0 5.8 27 10.6 ENE 28 35 15 19 1020.9 1020.6 0.0
26/12:30pm 25.1 19.4 6.8 31 9.6 ENE 26 33 14 18 1021.4 1021.1 0.0

Other Formats:

Comma delimited format used in spreadsheet applications
http://www.bom.gov.au/fwo/IDW60801/IDW60801.95612.axf

JavaScript Object Notation format (JSON) in row-major order
http://www.bom.gov.au/fwo/IDW60801/IDW60801.95612.json